This is the latest recevied weather packets stored in our database for station/object K7TUS-6. If no packets are shown the sender has not sent any weather packets the latest 10 day(s).
| Time | Temp. | Humidity | Pressure | Rain* | Wind** | Luminosity | Snow |
|---|---|---|---|---|---|---|---|
| 1777479006 | 15° C | 1% | 985.6 hPa | - | - | - | - |
| 1777478705 | 14.44° C | 1% | 985 hPa | - | - | - | - |
| 1777478411 | 13.89° C | 1% | 984.9 hPa | - | - | - | - |
| 1777478108 | 13.33° C | 1% | 985.3 hPa | - | - | - | - |
| 1777477807 | 12.78° C | 1% | 984.5 hPa | - | - | - | - |
| 1777477506 | 11.67° C | 1% | 984.6 hPa | - | - | - | - |
| 1777477206 | 11.11° C | 1% | 984.1 hPa | - | - | - | - |
| 1777476905 | 10.56° C | 1% | 984.9 hPa | - | - | - | - |
| 1777476604 | 10.56° C | 1% | 984.6 hPa | - | - | - | - |
| 1777476304 | 10° C | 1% | 984.5 hPa | - | - | - | - |
| 1777476009 | 9.44° C | 1% | 984.6 hPa | - | - | - | - |
| 1777475709 | 10° C | 1% | 985.1 hPa | - | - | - | - |
| 1777475108 | 10° C | 1% | 984.4 hPa | - | - | - | - |
| 1777474808 | 9.44° C | 1% | 983.9 hPa | - | - | - | - |
| 1777474507 | 9.44° C | 1% | 983.7 hPa | - | - | - | - |
| 1777474206 | 8.89° C | 1% | 983.7 hPa | - | - | - | - |
| 1777473906 | 8.89° C | 1% | 983.2 hPa | - | - | - | - |
| 1777473605 | 8.89° C | 1% | 983.4 hPa | - | - | - | - |
| 1777473304 | 9.44° C | 1% | 983.9 hPa | - | - | - | - |
| 1777473010 | 8.89° C | 1% | 984.4 hPa | - | - | - | - |
| 1777472709 | 8.89° C | 1% | 983.6 hPa | - | - | - | - |
| 1777472408 | 8.89° C | 1% | 983.7 hPa | - | - | - | - |
| 1777472107 | 8.89° C | 1% | 984.5 hPa | - | - | - | - |
| 1777471807 | 8.89° C | 1% | 984.1 hPa | - | - | - | - |
| 1777471506 | 8.89° C | 1% | 983.9 hPa | - | - | - | - |
* Rain since midnight (hover to see other rain measurements)
** Current wind speed in m/s (hover to see current wind gust speed)